Simultaneous Nadir Overpasses (SNOs) Predictions

Prediction of SNOs between NOAA-19 and METOP-C Satellite Orbit:

Table of predicted SNOs for the next 14.0 days since TLE Epoch: 7/2/2022
Index Date (NOAA-19) Time (NOAA-19) Lat,Lon (NOAA-19) SZA (NOAA-19 ) Date (METOP-C) Time (METOP-C) Lat,Lon (METOP-C) SZA (METOP-C ) Distance(km) Time Diff (sec)
1 07/02/2022 04:05:24 80.85, 152.20 59.31 07/02/2022 04:04:27 80.85, 152.17 59.29 0.68 57
2 07/02/2022 04:56:19 -80.85, -40.44 120.68 07/02/2022 04:55:09 -80.85, -40.50 120.71 1.11 70
3 07/13/2022 04:25:56 -80.86, -33.37 119.56 07/13/2022 04:27:10 -80.86, -33.28 119.52 1.63 74
4 07/13/2022 05:16:58 80.86, 133.96 60.46 07/13/2022 05:17:50 80.85, 133.88 60.47 1.69 52
5 07/13/2022 06:07:56 -80.86, -58.92 119.55 07/13/2022 06:08:32 -80.85, -58.77 119.53 2.83 36
6 07/13/2022 06:58:57 80.86, 108.78 60.49 07/13/2022 06:59:11 80.86, 108.75 60.50 1.05 14
7 07/13/2022 07:49:55 -80.86, -84.10 119.52 07/13/2022 07:49:54 -80.85, -84.26 119.54 3.11 1
8 07/13/2022 08:40:57 80.86, 83.23 60.50 07/13/2022 08:40:33 80.86, 83.26 60.49 0.59 24
9 07/13/2022 09:31:54 -80.85,-109.28 119.48 07/13/2022 09:31:15 -80.86,-109.39 119.50 2.09 39
10 07/13/2022 10:22:57 80.86, 57.67 60.51 07/13/2022 10:21:55 80.85, 57.77 60.48 2.08 62



Historial Predications of SNOs between NOAA-19 and METOP-C
